Other Public Products
Issued by NWS Grand Forks, ND

Home | Current Version | Previous Version | Text Only | Print | Product List | Glossary On
Versions: 1 2 3 4 5 6 7 8 9 10 11 12 13 14 15 16 17 18 19 20 21 22 23 24 25 26 27 28 29 30 31 32 33 34 35 36 37 38 39 40 41 42 43 44 45 46 47 48 49 50
000
FPUS83 KFGF 211231
OPUFGF
PRAIRIE TO PINES WEATHER ROUNDUP
NATIONAL WEATHER SERVICE EASTERN NORTH DAKOTA/GRAND FORKS ND
600 AM CST SUN DEC 21 2014

 **SATELLITE DATA USED TO AUGMENT SKY COVER AT AUTOMATED STATIONS**
 *****  WEATHER ACROSS EASTERN NORTH DAKOTA  *****

CITY           SKY/WX    TMP DP  RH WIND       PRES   REMARKS
GRAND FORKS    CLOUDY    30  29  96 S18G24    29.72F WCI  18
6HR MIN TEMP:  30; 6HR MAX TEMP:  31; 6HR PCP: TRACE;

GRAND FORKS AF CLOUDY    29  29 100 S18       29.71F WCI  16
GRAND CITY NWS   N/A     30 N/A N/A SW9         N/A  WCI  22
BUXTON           N/A     31  30  99 S10         N/A  WCI  22
DEVILS LAKE    CLEAR     18  10  73 SE5       29.63F WCI  11
6HR MIN TEMP:  18; 6HR MAX TEMP:  27;

FARGO          CLOUDY    32  29  88 S12       29.77F WCI  23
6HR MIN TEMP:  32; 6HR MAX TEMP:  32;

WAHPETON ARPT  CLOUDY    32  28  86 S10       29.79F WCI  24
$$

 *****  WEATHER ACROSS CENTRAL AND WESTERN NORTH DAKOTA  *****

CITY           SKY/WX    TMP DP  RH WIND       PRES   REMARKS
JAMESTOWN      PTCLDY    21  18  88 S8        29.68F WCI  11
6HR MIN TEMP:  21; 6HR MAX TEMP:  25;

BISMARCK       CLOUDY    19  17  92 CALM      29.66F
6HR MIN TEMP:  11; 6HR MAX TEMP:  19;

MINOT          CLEAR     19  15  84 SE3       29.58F
6HR MIN TEMP:  18; 6HR MAX TEMP:  28;

MINOT AFB      CLEAR     15  14  98 S6        29.58F WCI   6
6HR MIN TEMP:  13; 6HR MAX TEMP:  26;

GARRISON         N/A     19  16  88 CALM      29.59F
6HR MIN TEMP:  17; 6HR MAX TEMP:  26;

WILLISTON      CLEAR     17  14  88 CALM      29.54F
6HR MIN TEMP:  14; 6HR MAX TEMP:  22;

DICKINSON      CLEAR     26  20  77 S10       29.53F WCI  16
6HR MIN TEMP:  23; 6HR MAX TEMP:  28;

HETTINGER      CLEAR     22  18  85 CALM      29.58F
6HR MIN TEMP:  20; 6HR MAX TEMP:  29;

$$

 *****  OTHER OBSERVATIONS NORTHEAST NORTH DAKOTA  *****

CITY           SKY/WX    TMP DP  RH WIND       PRES   REMARKS
WALHALLA         N/A     28  28 100 S5        29.67F WCI  23
LANGDON        PTSUNNY   25  23  93 N5        29.63F WCI  19
CAVALIER       CLOUDY    28  28 100 S10G16    29.68F FOG     WCI  19
GRAFTON        NOT AVBL
CANDO          FAIR      18  16  93 S5        29.64S WCI  11
FORT TOTTEN    NOT AVBL
ROLLA          FOG       23  23 100 SW13G24   29.61F VSB 1/4 WCI  11
RUGBY          FAIR      14  14 100 E6        29.62S WCI   5
 ***** THE ABOVE OBSERVATIONS ARE NON NWS ARE NOT QUALITY
        CONTROLLED AND MAY MIS-REPORT RAIN FOR SNOW...
$$

 *****  OTHER OBSERVATIONS SOUTHEAST NORTH DAKOTA *****

CITY           SKY/WX    TMP DP  RH WIND       PRES   REMARKS
COOPERSTOWN    NOT AVBL
VALLEY CITY    FOG       27  27 100 S13       29.70F VSB 3/4 WCI  16
OAKES            N/A     28  28 100 S16       29.74S FOG     WCI  17
GWINNER        CLOUDY    32  32 100 MISG      29.76R
BUFFALO        NOT AVBL
WYNDMERE         N/A     30  28  93 S7          N/A  WCI  23
 ***** THE ABOVE OBSERVATIONS ARE NON NWS ARE NOT QUALITY
       CONTROLLED AND MAY MIS-REPORT RAIN FOR SNOW...
$$

  *****  WEATHER ACROSS NORTHERN MINNESOTA  *****

CITY           SKY/WX    TMP DP  RH WIND       PRES   REMARKS
FLAG ISLAND    LGT SNOW  28  27  93 SE17      29.75F WCI  16
WARROAD        LGT SNOW  30  27  86 S10       29.76F WCI  21
ROSEAU         LGT SNOW  30  27  86 S14       29.74S WCI  20
HALLOCK        CLOUDY    30  30 100 CALM      29.70F FOG
THF RVR FALLS  CLOUDY    30  28  93 S16       29.75F WCI  19
6HR MIN TEMP:  30; 6HR MAX TEMP:  30;

HALSTAD          N/A     31  28  90 S13         N/A  WCI  21
FOSSTON        CLOUDY    27  27 100 S15       29.77F FOG     WCI  15
BAUDETTE       LGT SNOW  29  26  89 S8        29.79S FOG     WCI  21
6HR MIN TEMP:  28; 6HR MAX TEMP:  29; 6HR PCP:  0.05;

WASKISH        MIX PCPN  28  28 100 CALM      29.81S
CROOKSTON      CLOUDY    30  30 100 S17G24    29.76F FOG     WCI  18
$$
  *****  WEATHER ACROSS CENTRAL AND WEST MINNESOTA  *****

CITY           SKY/WX    TMP DP  RH WIND       PRES   REMARKS
BEMIDJI        CLOUDY    29  28  96 S13       29.79F FOG     WCI  19
PARK RAPIDS    CLOUDY    30  29  96 S10       29.80F FOG     WCI  21
6HR MIN TEMP:  29; 6HR MAX TEMP:  30;

WADENA         CLOUDY    28  28 100 S14       29.81F FOG     WCI  17
DETROIT LAKES  CLOUDY    30  30 100 S14       29.79S FOG     WCI  20
MOORHEAD       CLOUDY    32  32 100 S12G18    29.78F FOG     WCI  23
FERGUS FALLS   CLOUDY    30  28  93 S13       29.82F FOG     WCI  20
ELBOW LAKE     CLOUDY    30  29  98 S12       29.81S FOG     WCI  20
6HR MIN TEMP:  29; 6HR MAX TEMP:  30;

MORRIS MN      CLOUDY    30  30 100 S9        29.80F FOG     WCI  22
STAPLES        CLOUDY    28  28 100 S13       29.83F FOG     WCI  18
WHEATON        CLOUDY    28  27  93 S9        29.82S FOG     WCI  20
$$
  *****  WEATHER ELSEWHERE ACROSS MINNESOTA  *****

CITY           SKY/WX    TMP DP  RH WIND       PRES   REMARKS
DULUTH         FRZ DRZL  30  27  88 SE8       29.91F FOG     WCI  22
6HR MIN TEMP:  29; 6HR MAX TEMP:  30; 6HR PCP: TRACE;

INTRNTL FALLS  CLOUDY    28  26  92 S6        29.83F WCI  22
6HR MIN TEMP:  28; 6HR MAX TEMP:  28; 6HR PCP:  0.12;

ELY            CLOUDY    28  27  93 S9        29.90F FOG     WCI  20
CLOQUET        CLOUDY    30  27  86 SE6       29.91S WCI  24
BRAINERD       CLOUDY    30  28  92 S17       29.86F FOG     WCI  18
6HR MIN TEMP:  27; 6HR MAX TEMP:  30;

HIBBING        CLOUDY    29  25  85 S8        29.87F WCI  21
6HR MIN TEMP:  29; 6HR MAX TEMP:  29;

ALEXANDRIA     CLOUDY    30  28  92 S10       29.82F FOG     WCI  21
6HR MIN TEMP:  29; 6HR MAX TEMP:  30;

SAINT CLOUD    CLOUDY    33  30  88 S9        29.89S FOG
6HR MIN TEMP:  32; 6HR MAX TEMP:  33;

MINNEAPOLIS    CLOUDY    32  30  92 SE12      29.93F FOG     WCI  23
6HR MIN TEMP:  31; 6HR MAX TEMP:  32;

$$

  *****  WEATHER ACROSS SOUTH DAKOTA  *****

CITY           SKY/WX    TMP DP  RH WIND       PRES   REMARKS
SIOUX FALLS    FOG       32  32 100 S10       29.81S VSB 1   WCI  24
6HR MIN TEMP:  30; 6HR MAX TEMP:  32;

BROOKINGS      NOT AVBL
WATERTOWN      CLOUDY    29  28  96 S12       29.76F FOG     WCI  19
6HR MIN TEMP:  28; 6HR MAX TEMP:  29;

HURON          FOG       31  30  96 S12       29.76F VSB 1   WCI  22
6HR MIN TEMP:  30; 6HR MAX TEMP:  31;

SISSETON         N/A     30  29  96 SW8       29.78F WCI  22
ABERDEEN       CLOUDY    30  29  96 S12       29.75F FOG     WCI  20
6HR MIN TEMP:  30; 6HR MAX TEMP:  30;

MITCHELL       CLOUDY    31  31 100 S12       29.78F FOG     WCI  22
PIERRE         PTCLDY    23  21  92 SE8       29.67F WCI  14
6HR MIN TEMP:  22; 6HR MAX TEMP:  25;

MOBRIDGE       CLEAR     23  21  92 SE8       29.64F WCI  14
RAPID CITY     CLEAR     24  20  84 W5        29.59F WCI  18
6HR MIN TEMP:  20; 6HR MAX TEMP:  32;

$$

  *****  SOME WEATHER IN NEARBY STATES *****

CITY           SKY/WX    TMP DP  RH WIND       PRES   REMARKS
GLASGOW MT     PTCLDY    22  18  85 E13       29.43F WCI  10
6HR MIN TEMP:  22; 6HR MAX TEMP:  25;

GREAT FALLS MT PTCLDY    42  31  64 SW21G30   29.35F
6HR MIN TEMP:  39; 6HR MAX TEMP:  44;

CHEYENNE WY    CLOUDY    38  19  46 SW17G25   29.74F
6HR MIN TEMP:  29; 6HR MAX TEMP:  38;

SCOTTSBLUFF NE CLEAR     21  17  84 E6        29.71F WCI  13
6HR MIN TEMP:  19; 6HR MAX TEMP:  38;

OMAHA NE       CLOUDY    37  35  92 S12       29.93F FOG
6HR MIN TEMP:  35; 6HR MAX TEMP:  37;

DES MOINES IA  CLOUDY    38  34  85 S12       30.01S
6HR MIN TEMP:  37; 6HR MAX TEMP:  39;

DAVENPORT IA   CLOUDY    35  31  85 S12       30.12F
6HR MIN TEMP:  33; 6HR MAX TEMP:  35;

CHICAGO IL     CLOUDY    32  27  81 S8        30.20F WCI  25
6HR MIN TEMP:  31; 6HR MAX TEMP:  32; 6HR PCP: TRACE;

EAU CLAIRE WI  CLOUDY    31  27  85 SE12      30.00F WCI  22
6HR MIN TEMP:  30; 6HR MAX TEMP:  31;

LA CROSSE WI   CLOUDY    34  30  85 SE8       30.04F
6HR MIN TEMP:  33; 6HR MAX TEMP:  34;

$$

  *****  SOME NATIONAL WEATHER *****

CITY           SKY/WX    TMP DP  RH WIND       PRES   REMARKS
LA GUARDIA NY  CLOUDY    32  25  75 N7        30.30R



USA.gov is the U.S. government's official web portal to all federal, state and local government web resources and services.